Location: Rosenheim
(47.8408°N, 12.2113°E)
Time: 02:44:21
(UTC+01:00)

ISS - Pass Details

Date: 16 November 2017
Orbit: 402 x 407 km, 51.6° (Epoch: 20 November)

Event Time Altitude Azimuth Distance (km) Brightness Sun altitude
Exits shadow 05:38:16 29° 223° (SW) 759 -2.8 -16.7°
Maximum altitude 05:38:26 30° 217° (SW) 756 -2.7 -16.7°
Drops below altitude 10° 05:41:19 10° 154° (SSE) 1,449 -0.5 -16.2°
Sets 05:43:32 0° 143° (SE) 2,304 0.8 -15.8°
